sat.trackr.live / text

‹ back to catalog

STARLINK-32161

NORAD 60593 · 2024-150L

PAYLOAD ACTIVE UNKNOWN

§ Identity

Operator
Country
US
Launch date
2024-08-20
Launch site
AFETR
Launch vehicle
Mass (kg)
RCS (m²)

Purposes: comms

External: N2YO · Heavens-Above · Gunter

§ Orbital elements

Epoch: 2026-05-25T04:13:16.300704Z

Period
93.85 min
Inclination
53.1599°
Eccentricity
0.0001084
Mean motion
15.34389147 rev/d
Perigee alt
462.0 km
Apogee alt
463.5 km
Semi-major
6,840.9 km
B*
3.0621e-5
RAAN
310.9117°
Arg perigee
93.2095°
Mean anomaly
266.9031°
Rev number
9,968

§ Raw data

STARLINK-321611 60593U 24150L   26145.17588311  .00000658  00000+0  30621-4 0  99912 60593  53.1599 310.9117 0001084  93.2095 266.9031 15.34389147 99684

JSON: /api/v1/satellites/60593 · /tle

For live sub-satellite position, see the globe view (requires WebGL).

§ Visibility from observer

Set your observer location to see the next 7 days of passes ≥ 10°. The values pass through the URL so the page stays shareable.

No JS? Fill the form by hand. The geolocation button needs JavaScript.